User: anonymous   Login
Location: Unspecified
(0.0000°N, 0.0000°E)
Time: 04:31:21
(UTC+00:00)
Language:

ZHOU ENLAI - Orbit

View from above orbital plane
View from above orbital plane
View from above satellite
View from above satellite

Ground track
Ground track

The orbit data is extracted from the following two-line orbital elements,

1 43156U 18008B   18350.89695003  .00000774  00000-0  51026-4 0  9999
2 43156  97.5124  62.0568 0013695 230.8932 241.6504 15.10330364 50055
Epoch (UTC): 16 December 2018 21:31:36
Eccentricity: 0.0013695
inclination: 97.5124°
perigee height: 526 km
apogee height: 544 km
right ascension of ascending node: 62.0568°
argument of perigee: 230.8932°
revolutions per day: 15.10330364
mean anomaly at epoch: 241.6504°
orbit number at epoch: 5005

The dashed part of the orbit path shows where the satellite is in the earth's shadow,  

DLR